Terminal Aerodrome Forecast
Issued by NWS

Home | Current Version | Previous Version | Text Only | Print | Product List | Glossary On
Versions: 1 2 3 4 5 6 7 8 9 10 11 12 13 14 15 16 17
000
FTUS42 KTAE 301123 AAA
TAFVLD
TAF AMD
KVLD 301123Z 3011/3112 VRB03KT 4SM BR BKN002
     FM301300 20005KT P6SM SCT040
     FM301800 20006KT P6SM VCTS SCT040CB
      TEMPO 3019/3023 VRB15G30KT 2SM +TSRA BKN040CB
     FM310200 VRB03KT P6SM SCT030 OVC250=

USA.gov is the U.S. government's official web portal to all federal, state and local government web resources and services.